This demonstration page uses our WeatherBlox Daily Observations layout. Learn more.

Left ArrowRight Arrow

36.17497, -115.13722

Hourly Observations for February 20, 2019

Temp ( °F °C ) Dew Point ( °F °C ) Humidity (%) Winds ( mph kmh ) Pressure ( in mb ) Visibility ( mi km ) Precip ( " mm )
12:53 am 00:53 Clear 33 0.6 19 -7.2 56 56 NW 3 6 30.03 1017 10 16 0.00 0.00
1:53 am 01:53 Clear 33 0.6 19 -7.2 56 56 Calm 30.02 1017 10 16 0.00 0.00
2:53 am 02:53 Clear 32 0 21 -6.1 64 64 NNW 5 7 29.99 1016 10 16 0.00 0.00
3:53 am 03:53 Clear 31 -0.6 20 -6.7 64 64 Calm 29.97 1015 10 16 0.00 0.00
4:53 am 04:53 Clear 31 -0.6 21 -6.1 67 67 NNW 5 7 29.96 1015 10 16 0.00 0.00
5:53 am 05:53 Clear 31 -0.6 21 -6.1 67 67 Calm 29.96 1015 10 16 0.00 0.00
6:53 am 06:53 Sunny 32 0 22 -5.6 66 66 Calm 29.95 1014 10 16 0.00 0.00
7:53 am 07:53 Sunny 36 2.2 22 -5.6 57 57 Calm 29.93 1014 10 16 0.00 0.00
8:53 am 08:53 Sunny 37 2.8 20 -6.7 50 50 ESE 6 9 29.93 1014 10 16 0.00 0.00
9:53 am 09:53 Sunny 39 3.9 19 -7.2 45 45 ESE 3 6 29.91 1013 10 16 0.00 0.00
10:53 am 10:53 Sunny 41 5 20 -6.7 43 43 ENE 3 6 29.87 1012 10 16 0.00 0.00
11:53 am 11:53 Sunny 45 7.2 21 -6.1 39 39 E 10 17 29.80 1009 10 16 0.00 0.00
12:53 pm 12:53 Mostly Cloudy 46 7.8 21 -6.1 37 37 NNE 13 20 29.78 1008 10 16 0.00 0.00
1:53 pm 13:53 Sunny 46 7.8 19 -7.2 34 34 N 6 9 29.77 1008 10 16 0.00 0.00
2:53 pm 14:53 Cloudy 45 7.2 22 -5.6 40 40 ENE 10 17 29.76 1008 10 16 0.00 0.00
3:53 pm 15:53 Cloudy 45 7.2 23 -5 42 42 E 12 19 29.76 1008 10 16 0.00 0.00
4:53 pm 16:53 Cloudy 43 6.1 23 -5 45 45 ENE 13 20 29.75 1007 10 16 0.00 0.00
5:53 pm 17:53 Cloudy 42 5.6 25 -3.9 51 51 E 14 22 29.76 1008 10 16 0.00 0.00
6:53 pm 18:53 Cloudy 38 3.3 32 0 79 79 ENE 9 15 29.77 1008 10 16 0.00 0.03
7:23 pm 19:23 Cloudy with Light Rain 38 3.3 32 0 79 79 NE 7 11 29.74 1007 10 16 0.00 0.03
7:35 pm 19:35 Cloudy with Light Rain 37 2.8 32 0 82 82 NE 7 11 29.75 1007 10 16 0.00 0.03
7:53 pm 19:53 Cloudy with Light Rain 37 2.8 32 0 82 82 ENE 5 7 29.75 1008 8 13 0.02 0.51
8:06 pm 20:06 Cloudy with Light Snow 36 2.2 32 0 86 86 NE 6 9 29.74 1007 6 10 0.03 0.76
8:53 pm 20:53 Cloudy with Light Snow 35 1.7 33 0.6 93 93 Calm 29.75 1007 8 13 0.06 1.52
9:17 pm 21:17 Cloudy with Light Rain 35 1.7 32 0 89 89 NW 6 9 29.74 1007 8 13 0.01 0.25
9:30 pm 21:30 Cloudy 35 1.7 33 0.6 93 93 NW 7 11 29.74 1007 10 16 0.01 0.25
9:53 pm 21:53 Cloudy 35 1.7 34 1.1 96 96 VRB 3 6 29.74 1007 10 16 0.01 0.25
10:53 pm 22:53 Cloudy with Mist and Fog 34 1.1 32 0 92 92 ESE 8 13 29.72 1006 4 6 0.00 0.03
10:57 pm 22:57 Cloudy with Mist and Fog 33 0.6 32 0 96 96 ESE 7 11 29.73 1007 2 3 0.00 0.00
11:02 pm 23:02 Cloudy with Mist and Fog 33 0.6 32 0 96 96 ESE 6 9 29.73 1007 1 1 0.00 0.00
11:12 pm 23:12 Cloudy with Mist and Fog 33 0.6 32 0 96 96 ESE 6 9 29.73 1007 2 2 0.00 0.00
11:16 pm 23:16 Cloudy with Mist and Fog 33 0.6 32 0 96 96 SE 5 7 29.73 1007 3 5 0.00 0.00
11:51 pm 23:51 Cloudy with Light Snow 34 1 34 1 100 100 S 3 6 29.71 1006 4 6 0.00 0.03
11:53 pm 23:53 Cloudy with Light Snow 33 0.6 33 0.6 100 100 S 3 6 29.70 1006 4 6 0.00 0.03

Powered by AerisWeather